Tracking 35051 objects as of 17-Aug-2026
HD Live streaming from Space Station
objects crossing your sky now

STARLINK-38050

Track STARLINK-38050 now!
10-day predictions
STARLINK-38050 is classified as:


NORAD ID: 69981
Int'l Code: 2026-159G
Launch date: July 11, 2026
Source: United States (US)
Launch site: AIR FORCE WESTERN TEST RANGE (AFWTR)
Your satellite tracking list
Your tracking list is empty




NASA's NSSDC Master Catalog

Two Line Element Set (TLE):
1 69981U 26159G   26229.52015273  .00229431  00000-0  14930-2 0  9992
2 69981  97.2845  69.9000 0001415 104.0356 256.1067 15.75268641  7115
Source of the keplerian elements: AFSPC